Theta_e
341 345 346 347 348 347 347 347 346 344 347 347 346 346 345 346 345 343 343 343 343 343 342 342 341 340 340 341 341 340 339 337 335 334 333 332 330 329 326 323 321 322 322 322 322 323 323 326 324 323 323 321
337 341 344 343 344 345 344 345 347 346 347 347 346 345 343 342 341 344 344 343 343 343 343 342 341 341 340 340 339 338 337 335 334 333 333 331 330 328 325 322 320 319 319 319 319 322 323 324 322 322 322 316
337 335 340 341 340 341 343 343 344 344 342 342 342 340 337 335 335 336 338 341 341 339 338 337 339 341 341 339 338 338 337 335 334 333 332 331 329 327 324 321 318 317 317 316 318 319 322 320 320 319 316 313
344 331 334 337 337 338 339 340 340 339 336 334 332 332 331 330 330 329 329 326 332 334 335 333 334 337 339 339 338 337 337 335 334 333 331 330 329 326 323 320 317 315 314 315 315 319 320 318 318 310 309 309
344 338 330 332 331 332 335 334 336 336 327 323 323 324 324 326 338 338 335 332 336 326 334 324 327 336 338 339 339 338 336 335 334 332 331 330 328 326 322 320 317 316 315 314 316 319 316 314 308 308 308 308
342 341 336 341 339 337 333 329 329 333 339 334 337 325 327 336 339 339 339 338 335 335 333 326 325 327 335 338 336 336 336 335 334 332 331 330 328 327 321 318 308 309 315 316 315 313 313 306 305 305 306 306
338 343 343 342 342 341 334 336 336 339 338 339 339 339 340 337 338 336 338 337 337 337 328 329 321 325 331 335 333 334 335 335 334 332 331 330 328 328 325 315 314 311 306 305 310 310 306 304 304 305 305 305
336 336 340 341 340 340 340 341 340 340 338 338 338 339 338 337 336 337 335 326 326 332 333 324 321 324 328 329 328 328 330 332 334 333 331 330 329 324 322 317 314 312 310 307 305 304 302 302 304 303 303 304
333 334 336 336 339 340 338 338 337 338 338 338 338 338 337 337 336 336 336 336 335 336 335 332 331 330 331 331 329 325 331 330 329 327 326 324 320 320 320 317 317 315 313 312 309 307 303 302 301 303 303 304
331 333 333 334 335 337 337 338 337 337 338 335 338 339 336 335 336 336 333 334 333 333 334 334 332 332 332 330 331 330 330 328 328 328 327 326 326 323 321 318 316 315 314 312 309 308 307 304 302 302 302 303
331 331 334 336 335 335 334 337 336 335 335 335 336 336 334 334 334 334 333 333 333 333 332 332 331 332 333 332 331 330 329 329 329 328 326 324 322 321 319 317 315 314 314 312 311 310 310 309 306 303 302 301
330 332 335 335 331 333 329 330 330 331 331 332 331 331 331 330 332 331 330 331 332 332 333 332 332 332 331 330 329 329 328 328 327 325 324 324 323 322 319 317 316 315 315 314 312 312 310 309 308 306 303 302
330 332 332 330 329 328 325 327 326 326 327 328 328 328 329 328 330 332 332 330 331 331 331 330 330 330 329 329 329 330 329 328 326 325 324 324 323 324 322 319 316 315 314 314 314 312 311 309 307 306 306 305
329 329 327 327 328 327 325 325 324 323 323 323 325 326 327 328 328 329 330 332 331 329 327 328 327 326 325 324 325 327 326 326 327 325 324 324 323 322 320 319 318 317 315 314 313 312 311 310 308 307 307 307
323 324 323 323 325 326 324 324 323 322 321 321 323 325 326 326 326 326 326 327 329 328 328 326 325 324 323 322 322 323 324 323 322 320 318 318 319 319 318 317 318 319 317 315 313 311 310 310 311 311 310 308
319 320 319 319 320 320 319 320 320 319 317 316 318 320 323 323 323 323 324 325 325 325 324 323 321 320 320 319 320 321 322 321 320 319 317 318 319 319 318 318 318 319 319 316 314 311 311 310 311 310 309 308
314 315 314 313 314 315 316 315 314 313 313 315 315 316 318 321 321 321 322 321 321 319 320 320 319 319 318 319 320 320 320 320 321 320 318 318 319 318 319 316 315 317 318 318 314 313 312 310 310 309 308 308
310 311 311 310 311 310 310 310 309 309 310 311 312 312 314 316 319 321 321 320 319 318 316 316 316 317 318 318 319 319 320 319 319 318 318 317 317 315 316 313 312 313 313 313 316 314 312 310 310 310 308 306
307 307 308 308 308 307 307 306 305 306 307 307 308 308 310 312 314 316 318 319 318 317 316 314 313 314 315 317 318 317 317 316 315 314 313 313 316 314 313 312 310 310 309 309 311 312 313 312 312 311 309 306
305 305 305 305 306 306 305 304 303 303 304 305 305 305 306 307 309 312 313 314 314 313 313 312 310 311 311 311 312 311 312 313 312 311 310 308 311 310 307 306 305 306 306 308 309 311 312 311 310 309 306 305
304 304 303 303 303 303 303 302 302 302 302 303 304 305 304 305 305 307 310 311 310 310 309 308 308 308 308 308 308 307 307 308 309 307 305 303 304 305 302 302 302 303 307 306 308 308 311 311 309 305 303 303
303 303 303 302 301 301 300 300 301 301 301 301 302 303 303 303 303 304 306 307 308 307 306 306 305 305 306 306 306 306 307 308 309 308 305 303 303 303 302 302 301 301 302 304 306 306 309 309 304 302 302 302
303 303 302 302 301 300 299 299 300 300 300 300 300 301 301 301 302 302 303 304 305 305 304 304 303 303 303 304 303 303 303 303 304 305 305 304 303 304 302 300 300 299 299 301 303 305 306 302 301 301 300 301
304 303 302 300 300 299 298 298 298 298 298 298 299 299 299 299 299 300 300 301 302 302 301 301 301 301 301 301 301 300 300 300 300 301 301 301 300 298 298 297 297 297 297 298 299 302 303 300 300 300 299 299
302 301 300 299 298 296 297 297 296 295 295 295 296 296 296 297 297 297 298 299 299 299 300 299 298 298 298 298 298 298 298 298 298 299 300 299 298 296 293 293 295 295 297 296 295 298 299 299 299 297 298 299
301 300 298 297 296 296 295 294 293 292 293 293 294 294 294 294 294 295 295 296 297 297 297 297 296 296 296 296 296 296 296 295 296 296 296 297 296 295 292 290 292 294 294 292 291 292 295 295 297 295 294 297
299 298 297 297 295 294 293 293 293 293 293 293 292 292 292 292 292 293 293 293 294 294 294 294 293 293 293 292 293 292 292 292 292 292 293 293 293 293 293 290 292 291 291 288 290 293 295 292 292 295 290 291
297 297 296 295 295 294 293 292 292 292 291 291 290 290 290 290 291 291 291 291 291 291 291 291 290 290 290 290 290 289 289 289 289 290 290 291 291 291 291 289 288 290 290 290 289 286 289 291 290 285 285 286
296 295 294 294 294 294 293 292 290 289 288 288 288 288 288 288 289 290 289 290 290 290 290 290 289 289 289 289 289 288 288 288 288 289 289 289 289 289 288 287 287 288 289 288 290 289 285 283 284 283 283 284
296 295 294 293 292 290 288 287 287 286 285 286 286 286 287 288 288 288 288 288 289 289 289 289 289 288 288 288 288 288 288 287 288 288 288 288 287 288 288 286 285 285 287 288 288 289 288 288 283 282 284 281
296 295 295 294 292 290 288 286 286 286 286 286 286 286 286 286 287 287 287 287 287 287 288 287 287 287 287 287 287 287 287 287 286 287 287 288 287 286 288 286 284 284 285 285 286 287 287 287 288 288 283 280
Wind_Speed
4 4 3 3 5 5 4 5 4 3 6 6 6 6 8 6 6 5 5 5 5 6 7 8 7 5 8 9 10 11 12 11 11 11 10 10 11 11 12 12 12 12 12 11 11 10 9 9 10 11 10 6
4 4 6 3 3 4 4 3 6 4 6 6 7 6 8 8 7 6 6 6 6 6 7 9 7 6 7 9 11 11 11 11 10 9 9 10 10 10 11 11 11 11 10 10 9 9 9 8 11 9 9 7
6 7 6 7 5 4 5 1 1 5 8 8 8 8 8 8 8 7 7 7 6 6 6 6 6 7 6 9 11 10 10 10 9 8 8 8 9 10 10 11 10 9 9 7 7 8 7 9 9 10 7 6
5 7 9 6 6 6 6 4 5 2 5 7 7 7 8 8 7 7 7 9 7 8 7 5 4 7 7 9 11 11 10 9 8 8 8 8 7 8 9 10 9 8 8 6 6 5 6 7 7 5 5 6
1 7 8 7 8 7 7 6 5 6 4 4 4 5 6 7 5 5 4 6 5 7 5 6 7 7 7 8 9 10 10 9 8 8 7 7 6 6 8 7 7 6 6 5 4 4 7 7 5 4 5 6
2 5 6 5 6 5 4 5 4 4 3 4 3 3 4 3 5 5 5 3 5 5 5 6 8 7 7 7 8 9 9 9 8 8 7 6 5 6 7 6 4 3 3 3 3 6 8 5 4 4 5 6
3 6 5 4 6 5 6 6 6 3 3 3 2 3 3 4 5 2 5 4 5 4 8 6 6 6 5 6 8 9 8 7 7 8 6 5 5 4 5 3 2 3 1 0 1 3 5 3 4 5 5 5
5 2 6 6 5 6 6 5 6 5 3 2 2 2 1 2 4 3 4 5 8 8 5 4 5 7 6 7 8 9 6 5 6 7 6 3 3 3 2 3 3 3 3 3 4 5 3 3 3 4 4 5
4 2 0 4 6 6 6 5 2 1 3 2 2 2 2 3 1 3 4 5 4 5 5 5 4 4 4 3 3 7 3 4 3 4 3 2 1 1 5 5 5 4 3 4 4 4 3 3 4 4 4 4
4 1 2 2 5 6 5 4 4 3 3 3 3 4 2 1 1 2 1 3 3 1 2 5 4 5 4 3 3 4 3 3 4 2 3 3 2 5 5 5 4 4 4 4 4 3 3 3 3 4 4 4
3 2 1 5 5 5 4 5 5 5 5 5 5 3 3 4 2 2 2 3 3 3 3 0 2 1 3 4 5 5 3 3 3 2 2 5 5 5 4 4 3 2 2 3 4 3 3 3 4 3 3 3
3 2 4 4 3 8 9 8 7 6 6 7 7 7 6 5 4 4 3 2 5 5 6 7 5 3 3 3 2 2 2 4 5 4 4 4 3 5 4 2 2 1 1 3 3 3 3 3 4 3 3 3
2 4 7 8 7 7 7 7 6 6 7 7 6 7 7 7 6 5 4 3 6 6 6 4 5 5 5 6 5 4 5 4 5 4 5 4 4 4 2 3 4 2 3 5 5 4 4 3 3 3 4 4
7 6 7 7 7 6 7 7 7 6 7 6 5 6 5 6 6 6 5 5 6 7 6 6 7 7 7 7 6 7 6 5 5 5 5 5 6 6 5 5 4 2 3 5 4 5 4 4 4 4 4 4
8 8 7 6 5 6 6 7 7 6 6 5 5 6 7 7 7 6 6 6 6 5 6 7 7 6 6 6 6 5 5 5 5 6 5 5 5 4 4 5 4 5 2 4 5 4 3 3 5 5 5 5
8 7 7 5 6 7 7 7 6 6 6 5 6 6 6 7 7 6 7 7 7 7 7 7 7 5 6 5 5 5 4 5 6 6 5 4 3 3 4 5 5 5 3 4 4 4 3 3 5 3 4 5
6 6 6 7 6 7 7 7 6 6 5 6 7 6 6 6 7 6 6 7 7 7 7 6 6 5 6 5 4 4 4 4 4 5 5 3 3 5 5 5 5 5 4 4 3 4 1 3 3 2 4 5
6 7 7 7 6 7 8 7 6 7 7 7 6 6 8 8 7 5 5 6 6 6 7 6 5 6 5 4 4 4 5 6 5 4 3 4 5 5 5 4 4 4 6 5 4 2 2 3 2 0 5 5
8 7 7 7 6 8 7 7 7 7 7 7 6 6 7 7 8 8 7 5 6 7 6 6 6 6 6 5 4 5 6 6 6 6 6 5 3 5 4 4 5 5 3 4 4 4 5 4 4 3 6 6
8 8 7 7 8 8 8 7 8 7 6 6 6 7 7 7 7 7 8 8 8 7 7 7 7 6 7 6 5 7 7 6 6 6 6 6 6 6 6 5 5 4 4 3 2 3 3 2 2 6 6 5
9 8 9 9 9 8 7 7 7 7 6 6 7 7 7 7 7 7 6 8 8 7 7 6 6 6 6 5 6 7 6 6 6 6 6 7 7 5 4 5 5 5 5 5 3 3 3 1 5 7 6 6
8 8 8 8 8 8 9 8 7 7 6 7 7 7 7 7 7 7 7 6 5 6 6 6 6 5 4 4 5 6 5 6 5 5 5 6 6 6 6 6 6 6 7 5 4 4 1 6 7 6 6 6
9 8 8 7 8 8 8 8 7 7 7 7 7 8 7 8 8 8 8 8 8 7 7 7 8 8 8 7 8 7 7 7 6 6 6 5 6 7 8 6 5 5 5 4 4 3 2 8 6 5 6 7
6 6 6 7 6 9 8 7 7 8 8 7 8 8 8 8 8 8 8 8 7 8 7 7 7 7 7 7 7 7 8 7 7 6 6 9 8 7 6 7 7 7 6 4 3 2 5 6 6 5 7 7
5 6 7 7 8 8 6 7 7 8 7 8 7 8 8 8 8 8 9 8 8 8 8 8 7 7 7 6 7 8 7 7 7 8 6 6 7 7 8 9 9 10 4 7 6 7 7 7 5 8 6 7
6 5 4 6 6 7 6 6 7 7 7 7 7 8 8 8 8 8 9 8 8 8 7 7 7 7 7 7 7 7 7 8 8 10 9 5 5 7 8 8 8 9 6 6 3 2 3 4 5 7 7 6
6 6 5 6 6 7 7 6 6 7 6 6 8 9 9 8 8 8 9 9 9 8 8 8 8 8 7 8 7 8 9 9 10 9 9 8 5 5 5 6 7 9 7 3 3 2 4 2 2 2 6 5
8 9 8 7 8 7 8 7 7 8 7 8 9 10 8 8 8 8 9 9 9 8 9 9 9 8 8 8 8 8 9 10 10 10 10 10 10 5 4 5 8 8 10 8 6 5 1 2 3 3 4 5
8 10 9 9 9 8 8 6 6 7 7 7 7 8 9 8 8 9 9 9 9 9 9 8 8 8 8 8 8 8 9 9 8 8 7 8 8 8 5 6 4 7 9 10 8 3 4 5 5 1 3 4
8 8 9 7 7 7 6 7 6 7 7 7 8 8 4 8 8 8 9 8 8 8 7 8 8 8 8 8 8 8 7 7 8 9 9 8 7 9 8 5 7 7 7 7 9 8 5 2 3 0 4 5
7 7 6 5 6 6 7 9 6 5 6 7 6 6 8 7 7 7 9 8 8 8 8 7 8 8 8 8 8 7 8 9 8 7 7 7 8 7 7 7 8 7 6 5 7 7 6 6 3 1 2 1
Wind_Direction
109 134 139 177 169 155 160 136 154 157 136 142 136 120 115 94 87 115 125 127 119 117 120 118 119 118 101 105 104 98 94 89 84 81 80 77 71 66 63 59 54 51 44 40 38 37 29 18 11 9 13 23
125 137 136 163 157 166 120 167 151 150 118 131 134 123 117 123 129 126 135 140 135 136 134 134 137 116 100 109 101 98 99 97 90 87 85 82 81 78 75 73 69 61 51 40 35 28 21 15 15 16 24 32
170 162 139 137 151 127 129 163 107 133 121 122 130 135 130 126 133 131 127 123 132 118 112 123 117 107 115 112 113 116 113 105 103 101 91 85 85 86 83 82 81 77 68 49 36 28 14 16 18 28 31 39
161 164 150 134 126 135 140 140 115 106 119 129 144 140 127 129 129 136 134 134 135 137 132 117 118 116 120 131 132 129 125 120 117 110 100 93 87 90 86 82 81 79 78 67 45 25 19 18 35 30 37 53
105 154 156 145 138 145 148 138 147 131 119 111 114 131 134 141 144 158 142 151 142 137 141 126 137 130 125 139 141 135 133 132 126 115 106 103 98 102 103 99 92 84 79 70 50 26 32 49 54 38 58 69
358 138 162 160 153 151 150 142 156 164 163 180 154 152 151 193 187 181 154 168 138 155 140 142 151 142 133 145 147 140 141 140 130 118 111 118 130 122 131 125 111 95 78 76 55 41 58 46 45 44 63 83
294 161 173 187 162 160 165 158 168 185 177 189 183 172 200 219 231 159 149 162 154 161 151 144 149 133 146 146 150 144 145 141 135 126 128 145 146 147 137 209 147 139 173 281 43 50 69 56 39 47 50 79
285 223 172 172 154 149 165 163 178 198 173 159 160 207 234 267 324 75 90 115 126 119 120 123 132 144 161 149 153 146 141 137 139 143 152 167 161 147 187 74 59 83 83 88 68 41 52 53 61 69 59 65
254 295 3 135 147 147 147 140 120 153 136 123 90 75 346 349 37 30 135 141 151 151 129 135 144 147 157 155 141 154 155 151 144 151 175 181 231 200 77 60 41 38 43 50 72 52 35 42 52 65 68 58
261 343 294 154 143 155 152 139 126 111 105 116 126 143 186 162 110 222 225 170 134 281 137 145 154 159 159 152 157 192 171 165 159 214 203 209 152 84 65 62 47 32 40 51 60 54 35 23 50 63 64 58
273 263 304 57 37 63 65 92 89 77 53 62 64 85 85 90 57 40 42 43 69 82 66 135 115 167 162 157 159 194 221 185 138 99 54 64 76 81 78 70 66 46 32 56 66 47 28 20 42 33 47 44
269 238 86 65 42 52 51 59 48 45 38 41 38 27 30 27 60 51 36 49 82 58 46 19 27 46 75 134 157 128 64 50 55 46 54 65 68 98 97 91 101 110 77 50 69 53 18 31 42 19 36 36
249 77 65 62 60 61 59 63 55 45 46 43 33 30 28 23 34 25 16 77 82 77 63 57 45 34 26 40 35 57 66 73 61 52 54 50 56 49 87 140 109 68 59 62 41 51 23 17 48 31 35 21
69 65 68 60 68 77 69 68 61 52 54 41 42 42 41 36 33 28 7 60 86 89 91 79 62 55 39 37 31 36 40 24 64 56 30 25 33 32 22 46 38 38 72 81 70 35 24 5 26 43 45 44
60 67 65 58 61 80 78 75 71 64 60 51 46 43 44 46 41 40 36 47 50 72 79 75 70 59 54 45 32 42 56 42 47 55 48 32 35 38 18 21 26 32 59 91 74 67 40 360 31 30 22 47
59 67 69 63 64 64 66 70 70 66 62 54 39 33 48 51 47 39 47 41 58 58 65 66 65 62 64 56 35 45 62 76 71 72 61 46 52 35 22 14 19 355 46 90 102 81 35 15 55 32 23 50
49 61 65 60 50 63 65 65 63 63 63 58 46 35 34 51 54 45 48 52 60 64 62 61 63 61 65 68 59 54 60 79 93 88 86 58 50 41 45 40 8 351 14 41 81 91 56 51 44 34 55 57
51 52 60 57 53 53 55 54 57 52 48 48 47 38 37 34 36 45 50 59 62 68 64 55 50 54 56 65 68 60 55 52 46 51 58 62 62 51 52 44 11 11 16 358 16 81 83 79 45 64 77 71
56 49 55 62 62 58 55 53 54 48 45 44 38 33 36 39 38 32 36 43 59 65 65 62 51 39 25 22 32 53 61 62 51 46 37 13 49 62 46 43 33 26 17 5 6 4 25 56 4 50 76 66
72 69 64 61 59 64 57 59 56 47 45 50 45 39 37 30 33 42 41 38 41 51 49 49 46 36 28 22 27 36 41 52 56 50 45 31 33 50 29 24 15 18 6 359 350 340 359 30 2 61 65 61
75 74 68 61 64 64 61 59 55 46 41 47 48 41 42 31 31 35 50 60 56 65 63 64 64 55 53 42 52 51 50 52 54 60 55 43 36 49 37 20 5 359 355 327 324 313 299 23 40 63 60 55
78 76 77 74 69 67 63 58 55 51 47 48 46 40 40 32 31 30 37 44 60 66 58 54 50 43 45 43 50 58 58 60 59 67 74 73 59 45 36 23 14 359 345 331 316 319 358 62 62 53 58 60
87 86 85 81 73 69 66 59 55 49 51 47 47 43 37 36 35 29 32 39 43 53 51 49 46 46 37 39 39 40 37 35 31 46 52 68 59 55 43 28 11 353 326 322 309 294 50 76 68 64 56 57
102 92 83 84 78 67 60 61 59 52 51 47 49 42 40 39 39 32 33 35 41 54 52 50 45 50 45 43 46 46 43 31 30 26 51 55 56 41 28 24 10 356 347 325 336 285 69 81 77 45 59 59
92 96 88 78 77 80 70 68 64 59 48 49 46 42 42 41 39 38 37 33 39 47 50 49 45 45 42 44 49 51 45 38 31 31 38 69 63 55 40 26 9 5 6 40 11 24 73 68 62 51 58 60
67 60 77 96 84 85 67 64 62 62 47 49 48 45 44 42 39 42 43 38 38 45 49 51 47 46 43 43 47 50 45 39 35 33 36 29 62 54 55 40 15 6 18 27 47 41 36 44 65 66 49 50
86 81 77 92 94 98 92 70 79 80 71 60 57 51 46 43 43 44 45 43 43 47 42 45 48 43 42 46 45 50 44 39 38 31 32 35 43 57 53 56 24 24 38 29 305 183 109 139 82 344 24 12
91 92 94 88 98 91 94 101 84 77 66 58 56 51 46 45 46 48 52 47 48 50 47 46 47 45 45 46 46 53 54 43 39 31 28 26 31 32 63 42 37 28 22 30 19 29 77 332 90 20 342 344
109 103 97 102 102 103 100 81 74 76 64 60 62 63 47 41 43 48 51 47 47 50 51 48 47 49 46 47 41 46 52 49 41 37 34 32 36 36 53 39 32 16 28 32 31 88 40 11 37 85 265 334
122 122 122 122 123 115 96 86 70 69 81 69 60 64 61 53 47 52 55 50 50 51 51 52 49 51 52 48 44 42 50 51 42 34 34 24 37 33 27 72 46 27 4 34 29 34 65 133 160 285 301 62
131 131 132 122 109 105 114 112 92 92 83 88 86 82 68 63 52 51 58 53 53 51 50 54 50 53 55 55 52 46 51 47 42 37 34 26 38 38 33 37 57 41 5 359 19 16 24 34 31 123 98 328